IRIDIUM 103

Last updated on Sun Jun 21 2026 00:03:13 GMT+0000 (Coordinated Universal Time)

1 41918U 17003B 26171.29215571 .00000084 00000+0 22760-4 0 9995 2 41918 86.3963 87.1582 0002252 77.6062 282.5386 14.34218100493677
UTC large
Height (km)
Speed (km/s)
/
Latitude / Longitude
Inclination (degrees)
Orbital Period (minutes)
Azimuth
Elevation
Range (km)
Doppler Factor

Next 0 passes for location: London (51.5072 / 0.1276)

No passes found over London.
IRIDIUM 103